Location: Gilevgi
(36.8751°N, 30.0581°E)
Time: 01:27:32
(UTC+00:00)

IRIDIUM 114 - Pass Details

Date: 11 December 2025
Orbit: 776 x 779 km, 86.4° (Epoch: 14 January)

Event Time Altitude Azimuth Distance (km) Brightness Sun altitude
Rises 15:08:30 0° 2° (N) 3,267 7.3 -5.3°
Reaches altitude 10° 15:10:54 10° 6° (N) 2,335 6.5 -5.7°
Maximum altitude 15:16:03 60° 86° (E) 888 4.4 -6.7°
Drops below altitude 10° 15:21:11 10° 166° (SSE) 2,317 6.9 -7.6°
Sets 15:23:33 0° 170° (S) 3,240 7.7 -8.0°
